Tracking 22287 objects as of 27-Jan-2021
HD Live streaming from Space Station
objects crossing your sky now

ONEWEB-0060

Track ONEWEB-0060 now!
10-day predictions
ONEWEB-0060 is classified as:


NORAD ID: 45455
Int'l Code: 2020-020AH
Perigee: 1,223.5 km
Apogee: 1,226.0 km
Inclination: 87.9 °
Period: 109.8 minutes
Semi major axis: 7595 km
RCS: Unknown
Launch date: March 21, 2020
Source: United Kingdom (UK)
Launch site: TYURATAM MISSILE AND SPACE COMPLEX (TTMTR)
aabbcc
Your satellite tracking list
Your tracking list is empty




NASA's NSSDC Master Catalog

Two Line Element Set (TLE):
1 45455U 20020AH  21027.58334491 -.00005880  00000-0 -16634-1 0  9990
2 45455  87.8850  52.0504 0001655  93.7709 275.5340 13.11428165 44803
Source of the keplerian elements: AFSPC